Stündliche Wetter Abaza

Heute, 4 März, Donnerstag

Zeit Temperatur Niederschläge Wind Luftdruck Luftfeuchtigkeit
00:00 -10°C° 0 mm 1 m/S 722 mmHg 92%
01:00 -11°C° 0 mm 1 m/S 723 mmHg 92%
02:00 -11°C° 0 mm 1 m/S 723 mmHg 92%
03:00 -12°C° 0 mm 1 m/S 723 mmHg 92%
04:00 -12°C° 0 mm 1 m/S 724 mmHg 91%
05:00 -13°C° 0 mm 1 m/S 724 mmHg 91%
06:00 -16°C° 0 mm 2 m/S 725 mmHg 89%
07:00 -12°C° 0 mm 1 m/S 725 mmHg 87%
08:00 -10°C° 0 mm 1 m/S 725 mmHg 85%
09:00 -9°C° 0 mm 1 m/S 725 mmHg 83%
10:00 -7°C° 0 mm 1 m/S 724 mmHg 81%
11:00 -4°C° 0 mm 0 m/S 724 mmHg 79%
12:00 -2°C° 0 mm 0 m/S 724 mmHg 76%
13:00 -2°C° 0 mm 0 m/S 724 mmHg 75%
14:00 -2°C° 0 mm 0 m/S 723 mmHg 74%
15:00 -1°C° 0 mm 0 m/S 723 mmHg 73%
16:00 -3°C° 0 mm 0 m/S 723 mmHg 77%
17:00 -5°C° 0 mm 0 m/S 723 mmHg 82%
18:00 -8°C° 0 mm 0 m/S 723 mmHg 87%
19:00 -8°C° 0 mm 0 m/S 723 mmHg 87%
20:00 -8°C° 0 mm 1 m/S 723 mmHg 86%
21:00 -9°C° 0 mm 1 m/S 723 mmHg 86%
22:00 -10°C° 0 mm 1 m/S 723 mmHg 85%
23:00 -10°C° 0 mm 1 m/S 722 mmHg 85%

Morgen, 5 März, Freitag

Zeit Temperatur Niederschläge Wind Luftdruck Luftfeuchtigkeit
00:00 -11°C° 0 mm 1 m/S 722 mmHg 85%
01:00 -11°C° 0 mm 1 m/S 722 mmHg 84%
02:00 -12°C° 0 mm 1 m/S 721 mmHg 83%
03:00 -12°C° 0 mm 1 m/S 721 mmHg 83%
04:00 -12°C° 0 mm 1 m/S 721 mmHg 83%
05:00 -12°C° 0 mm 1 m/S 721 mmHg 83%
06:00 -12°C° 0 mm 1 m/S 721 mmHg 82%
07:00 -10°C° 0 mm 1 m/S 720 mmHg 81%
08:00 -8°C° 0 mm 1 m/S 720 mmHg 80%
09:00 -7°C° 0 mm 1 m/S 720 mmHg 79%
10:00 -4°C° 0 mm 1 m/S 720 mmHg 78%
11:00 -2°C° 0 mm 1 m/S 720 mmHg 77%
12:00 0°C° 0 mm 1 m/S 719 mmHg 76%
13:00 +1°C° 0 mm 1 m/S 719 mmHg 78%
14:00 +1°C° 0 mm 1 m/S 719 mmHg 79%
15:00 +2°C° 0 mm 1 m/S 719 mmHg 80%
16:00 -1°C° 0.6 mm 2 m/S 720 mmHg 85%
17:00 -1°C° 0.6 mm 2 m/S 721 mmHg 90%
18:00 -2°C° 0.6 mm 3 m/S 722 mmHg 94%
19:00 -5°C° 0.2 mm 3 m/S 723 mmHg 92%
20:00 -6°C° 0.2 mm 3 m/S 723 mmHg 90%
21:00 -7°C° 0.2 mm 3 m/S 724 mmHg 88%
22:00 -8°C° 0 mm 3 m/S 725 mmHg 88%
23:00 -8°C° 0 mm 3 m/S 725 mmHg 88%

übermorgen, 6 März, Samstag

Zeit Temperatur Niederschläge Wind Luftdruck Luftfeuchtigkeit
00:00 -8°C° 0 mm 2 m/S 725 mmHg 88%
01:00 -8°C° 0 mm 2 m/S 725 mmHg 87%
02:00 -9°C° 0 mm 2 m/S 725 mmHg 86%
03:00 -10°C° 0 mm 2 m/S 724 mmHg 85%
04:00 -10°C° 0 mm 2 m/S 724 mmHg 84%
05:00 -10°C° 0 mm 2 m/S 724 mmHg 82%
06:00 -12°C° 0 mm 2 m/S 724 mmHg 80%
07:00 -9°C° 0 mm 2 m/S 724 mmHg 79%
08:00 -7°C° 0 mm 2 m/S 724 mmHg 78%
09:00 -5°C° 0 mm 2 m/S 724 mmHg 77%
10:00 -1°C° 0 mm 1 m/S 723 mmHg 77%
11:00 +1°C° 0 mm 1 m/S 723 mmHg 76%
12:00 +3°C° 0 mm 1 m/S 722 mmHg 76%
13:00 +3°C° 0 mm 1 m/S 721 mmHg 78%
14:00 +3°C° 0 mm 1 m/S 721 mmHg 80%
15:00 +3°C° 0 mm 0 m/S 720 mmHg 81%
16:00 +1°C° 0 mm 0 m/S 720 mmHg 81%
17:00 -1°C° 0 mm 0 m/S 720 mmHg 81%
18:00 -3°C° 0 mm 0 m/S 720 mmHg 80%
19:00 -2°C° 0 mm 1 m/S 720 mmHg 81%
20:00 -3°C° 0 mm 1 m/S 720 mmHg 81%
21:00 -4°C° 0 mm 1 m/S 719 mmHg 82%
22:00 -6°C° 0 mm 2 m/S 719 mmHg 81%
23:00 -7°C° 0 mm 2 m/S 719 mmHg 81%

7 März, Sonntag

Zeit Temperatur Niederschläge Wind Luftdruck Luftfeuchtigkeit
00:00 -8°C° 0 mm 2 m/S 719 mmHg 80%
01:00 -8°C° 0 mm 2 m/S 719 mmHg 80%
02:00 -8°C° 0 mm 2 m/S 719 mmHg 80%
03:00 -9°C° 0 mm 2 m/S 719 mmHg 80%
04:00 -8°C° 0 mm 1 m/S 719 mmHg 80%
05:00 -8°C° 0 mm 1 m/S 719 mmHg 80%
06:00 -9°C° 0 mm 1 m/S 720 mmHg 80%
07:00 -7°C° 0 mm 1 m/S 720 mmHg 80%
08:00 -4°C° 0 mm 1 m/S 720 mmHg 80%
09:00 -3°C° 0 mm 1 m/S 720 mmHg 80%
10:00 -1°C° 0 mm 1 m/S 720 mmHg 79%
11:00 -2°C° 0 mm 2 m/S 720 mmHg 78%
12:00 +1°C° 0 mm 2 m/S 720 mmHg 77%
13:00 +1°C° 0 mm 2 m/S 720 mmHg 78%
14:00 +1°C° 0 mm 2 m/S 720 mmHg 78%
15:00 +1°C° 0 mm 2 m/S 720 mmHg 79%
16:00 -1°C° 0 mm 2 m/S 720 mmHg 82%
17:00 0°C° 0 mm 1 m/S 721 mmHg 86%
18:00 -2°C° 0 mm 1 m/S 721 mmHg 89%
19:00 -3°C° 0 mm 1 m/S 721 mmHg 89%
20:00 -3°C° 0 mm 1 m/S 721 mmHg 88%
21:00 -4°C° 0 mm 1 m/S 722 mmHg 88%
22:00 -6°C° 0 mm 1 m/S 722 mmHg 88%
23:00 -6°C° 0 mm 1 m/S 722 mmHg 87%

8 März, Montag

Zeit Temperatur Niederschläge Wind Luftdruck Luftfeuchtigkeit
00:00 -6°C° 0 mm 1 m/S 722 mmHg 87%
01:00 -6°C° 0 mm 1 m/S 722 mmHg 86%
02:00 -7°C° 0 mm 1 m/S 722 mmHg 86%
03:00 -7°C° 0 mm 1 m/S 721 mmHg 85%
04:00 -7°C° 0 mm 1 m/S 721 mmHg 84%
05:00 -7°C° 0 mm 1 m/S 722 mmHg 83%
06:00 -8°C° 0 mm 1 m/S 722 mmHg 82%
07:00 -6°C° 0 mm 1 m/S 721 mmHg 81%
08:00 -3°C° 0 mm 1 m/S 721 mmHg 79%
09:00 -1°C° 0 mm 1 m/S 721 mmHg 78%
10:00 0°C° 0 mm 0 m/S 720 mmHg 80%
11:00 +1°C° 0 mm 0 m/S 720 mmHg 83%
12:00 +3°C° 0 mm 0 m/S 719 mmHg 85%
13:00 +3°C° 0 mm 0 m/S 719 mmHg 88%
14:00 +4°C° 0 mm 0 m/S 718 mmHg 90%
15:00 +4°C° 0 mm 0 m/S 718 mmHg 93%
16:00 +3°C° 0 mm 0 m/S 718 mmHg 92%
17:00 +1°C° 0 mm 0 m/S 718 mmHg 91%
18:00 -1°C° 0 mm 0 m/S 717 mmHg 91%
19:00 0°C° 0 mm 1 m/S 717 mmHg 89%
20:00 0°C° 0 mm 1 m/S 717 mmHg 88%
21:00 0°C° 0 mm 1 m/S 717 mmHg 87%
22:00 0°C° 0 mm 1 m/S 717 mmHg 85%
23:00 -2°C° 0 mm 2 m/S 717 mmHg 83%

9 März, Dienstag

Zeit Temperatur Niederschläge Wind Luftdruck Luftfeuchtigkeit
00:00 -2°C° 0 mm 2 m/S 717 mmHg 81%
01:00 -2°C° 0 mm 2 m/S 717 mmHg 83%
02:00 -2°C° 0 mm 2 m/S 718 mmHg 85%
03:00 -2°C° 0 mm 2 m/S 718 mmHg 87%
04:00 -2°C° 0.1 mm 2 m/S 718 mmHg 87%
05:00 -2°C° 0.1 mm 2 m/S 719 mmHg 88%
06:00 -2°C° 0.1 mm 2 m/S 719 mmHg 89%
07:00 -1°C° 0.1 mm 3 m/S 719 mmHg 88%
08:00 0°C° 0.1 mm 3 m/S 720 mmHg 86%
09:00 0°C° 0.1 mm 4 m/S 720 mmHg 85%
10:00 0°C° 0.1 mm 4 m/S 721 mmHg 82%
11:00 0°C° 0.1 mm 4 m/S 721 mmHg 80%
12:00 +1°C° 0.1 mm 5 m/S 722 mmHg 77%
13:00 0°C° 0.2 mm 4 m/S 722 mmHg 79%
14:00 0°C° 0.2 mm 4 m/S 722 mmHg 81%
15:00 +1°C° 0.2 mm 3 m/S 723 mmHg 83%
16:00 -1°C° 0.1 mm 3 m/S 723 mmHg 86%
17:00 -2°C° 0.1 mm 2 m/S 724 mmHg 89%
18:00 -2°C° 0.1 mm 1 m/S 724 mmHg 91%
19:00 -3°C° 0 mm 1 m/S 725 mmHg 92%
20:00 -3°C° 0 mm 1 m/S 725 mmHg 92%
21:00 -4°C° 0 mm 1 m/S 725 mmHg 93%
22:00 -4°C° 0 mm 1 m/S 725 mmHg 92%
23:00 -6°C° 0 mm 1 m/S 724 mmHg 92%
Mehr zeigen

Wir brauchen deine Erlaubnis

Meteoprog und unser Service Anbieter werden persönliche Daten aufbewahren, so wie Cookies, Geräte Bezeichnung oder ähnliche Technologien von deinem Gerät und Prozess, so wie Persönliche Daten Inhalte und Werbungen, genauso wie social Media und den Verkehr zu analysieren.

  • Aufbewahrung und/oder Zugang zu deiner Geräte Informationen.

    Cookies, Geräte Bezeichnung oder andere Informationen, können aufbewahrt oder Zugang zu deinem Gerät erhalten, für den Grund, der oben angegeben wird.

  • Personalisierte Werbung und Inhalte, Messungen, Einblick in das Publikum und Produkt Entwicklung.

    Werbungen und Inhalte können personalisiert werden, basierend auf ein Profil. Mehr Daten können besser personalisierte Werbungen und Inhalte hinzufügen. Werbung und Inhalte können gezeigt und gemessen werden. Einblicke über das Publikum, welche die Werbung gesehen haben und den Inhalt, können abgeleitet werden. So wie Daten können genutzt werden, um es zu verbessern oder die Benutzer Erfahrung zu verbessern das System und die Software.

Wenn du “Ich stimme zu” klickst, erlaubst du uns, die Cookies zu benutzen die Geräte Bezeichnung, den Web oder ähnliche Technologien zu benutzen. Deine Settings, können in deinem Gerät bei deinem Browser geändert werden.

Für den bestimmten Zweck, berechtigten Interessen beruhen darauf, mehr als auf den Inhalt. Du kannst mehr darüber in unseren Privaten und Cookie Politik lesen.